This demonstration page uses our WeatherBlox Daily Observations layout. Learn more.

Left ArrowRight Arrow

34.74481, -87.66753

Hourly Observations for December 9, 2022

Temp ( °F °C ) Dew Point ( °F °C ) Humidity (%) Winds ( mph kmh ) Pressure ( in mb ) Visibility ( mi km ) Precip ( " mm )
12:53 am 00:53 Cloudy with Mist and Fog 64 17.8 62 16.7 93 93 Calm 30.08 1019 6 10 0.00 0.00
1:53 am 01:53 Cloudy with Mist and Fog 63 17.2 62 16.7 97 97 Calm 30.08 1019 2 3 0.00 0.00
2:02 am 02:02 Cloudy with Mist and Fog 63 17.2 62 16.7 97 97 NNW 3 6 30.09 1019 2 3 0.00 0.00
2:53 am 02:53 Cloudy with Mist and Fog 63 17.2 62 16.7 97 97 Calm 30.07 1018 2 2 0.01 0.25
3:53 am 03:53 Mostly Clear with Mist and Fog 63 17.2 62 16.7 97 97 Calm 30.06 1018 1 1 0.00 0.00
4:36 am 04:36 Mostly Clear with Light Rain 63 17.2 62 16.7 97 97 Calm 30.07 1018 1 1 0.01 0.25
4:53 am 04:53 Mostly Clear with Light Rain 63 17.2 62 16.7 97 97 Calm 30.06 1018 1 2 0.01 0.25
5:01 am 05:01 Mostly Clear with Mist and Fog 63 17.2 62 16.7 97 97 Calm 30.06 1018 1 1 0.01 0.13
5:12 am 05:12 Cloudy with Mist and Fog 63 17.2 62 16.7 97 97 Calm 30.06 1018 1 2 0.01 0.13
5:41 am 05:41 Cloudy with Light Rain 63 17.2 61 16.1 93 93 NE 3 6 30.06 1018 3 4 0.01 0.25
5:53 am 05:53 Cloudy with Heavy Rain 62 16.7 61 16.1 96 96 ENE 5 7 30.06 1018 3 4 0.07 1.78
6:18 am 06:18 Cloudy with Heavy Rain 62 16.7 61 16.1 96 96 Calm 30.07 1018 2 3 0.20 5.08
6:36 am 06:36 Cloudy with Rain 62 16.7 61 16.1 96 96 Calm 30.07 1018 3 4 0.30 7.62
6:43 am 06:43 Cloudy with Light Rain 62 16.7 61 16.1 96 96 Calm 30.07 1018 6 10 0.31 7.87
6:53 am 06:53 Cloudy with Light Rain 62 16.7 61 16.1 96 96 Calm 30.07 1018 8 13 0.31 7.87
7:08 am 07:08 Cloudy with Rain 62 16.7 61 16.1 96 96 Calm 30.08 1019 4 6 0.03 0.76
7:11 am 07:11 Cloudy with Rain 62 16.7 61 16.1 96 96 Calm 30.08 1019 3 4 0.05 1.27
7:23 am 07:23 Cloudy with Rain 62 16.7 61 16.1 96 96 Calm 30.08 1019 2 3 0.10 2.54
7:44 am 07:44 Cloudy with Heavy Rain 62 16.7 61 16.1 96 96 Calm 30.08 1019 1 2 0.20 5.08
7:53 am 07:53 Cloudy with Light Rain 62 16.7 61 16.1 96 96 Calm 30.07 1018 3 4 0.22 5.59
8:00 am 08:00 Cloudy with Light Rain 62 16.7 61 16.1 96 96 Calm 30.08 1019 4 6 0.01 0.13
8:20 am 08:20 Cloudy 63 17.2 61 16.1 93 93 NNW 3 6 30.09 1019 8 13 0.01 0.25
8:53 am 08:53 Cloudy 63 17.2 62 16.7 97 97 Calm 30.09 1019 10 16 0.01 0.25
9:40 am 09:40 Cloudy 64 17.8 62 16.7 93 93 Calm 30.09 1019 8 13 0.00 0.00
9:53 am 09:53 Cloudy 64 17.8 62 16.7 93 93 Calm 30.09 1019 10 16 0.00 0.00
10:29 am 10:29 Cloudy 66 18.9 63 17.2 90 90 WNW 8 13 30.10 1019 10 16 0.00 0.00
10:53 am 10:53 Cloudy 65 18.3 63 17.2 93 93 WNW 9 15 30.09 1019 9 14 0.01 0.13
11:53 am 11:53 Cloudy 65 18.3 62 16.7 90 90 WNW 7 11 30.07 1018 9 14 0.01 0.13
12:53 pm 12:53 Cloudy 65 18.3 62 16.7 90 90 WNW 7 11 30.06 1018 10 16 0.01 0.13
1:57 pm 13:57 Cloudy 64 17.8 61 16.1 90 90 W 10 17 30.06 1018 10 16 0.00 0.00
2:13 pm 14:13 Cloudy 64 17.8 61 16.1 90 90 W 8 13 30.06 1018 10 16 0.00 0.00
2:53 pm 14:53 Cloudy 64 17.8 60 15.6 87 87 W 10 17 30.07 1018 8 13 0.00 0.00
3:10 pm 15:10 Cloudy 64 17.8 60 15.6 87 87 W 10 17 30.08 1019 8 13 0.00 0.00
3:24 pm 15:24 Cloudy 63 17.2 60 15.6 90 90 WNW 8 13 30.08 1019 10 16 0.00 0.00
3:53 pm 15:53 Cloudy 63 17.2 59 15 87 87 WNW 8 13 30.09 1019 10 16 0.00 0.00
4:53 pm 16:53 Cloudy 63 17.2 59 15 87 87 WNW 5 7 30.10 1019 10 16 0.00 0.00
5:53 pm 17:53 Cloudy 62 16.7 59 15 90 90 NW 5 7 30.11 1020 10 16 0.00 0.00
6:53 pm 18:53 Cloudy 62 16.7 58 14.4 86 86 NNW 5 7 30.12 1020 10 16 0.00 0.00
7:53 pm 19:53 Mostly Cloudy 60 15.6 55 12.8 83 83 NNW 5 7 30.15 1021 10 16 0.00 0.00
8:06 pm 20:06 Partly Cloudy 58 14.4 54 12.2 87 87 NW 3 6 30.16 1021 10 16 0.00 0.00
8:53 pm 20:53 Clear 58 14.4 54 12.2 87 87 Calm 30.15 1021 10 16 0.00 0.00
9:53 pm 21:53 Mostly Cloudy 56 13.3 53 11.7 90 90 NNW 3 6 30.15 1021 10 16 0.00 0.00
10:02 pm 22:02 Partly Cloudy 55 12.8 53 11.7 93 93 NNW 5 7 30.16 1021 10 16 0.00 0.00
10:53 pm 22:53 Clear 54 12.2 52 11.1 93 93 Calm 30.15 1021 10 16 0.00 0.00
11:14 pm 23:14 Clear with Mist and Fog 51 10.6 50 10 96 96 Calm 30.17 1022 2 3 0.00 0.00
11:27 pm 23:27 Mostly Clear with Mist and Fog 50 10 49 9.4 96 96 Calm 30.17 1022 1 1 0.00 0.00
11:37 pm 23:37 Mostly Clear with Fog 50 10 49 9.4 96 96 Calm 30.17 1022 0 0 0.00 0.00
11:53 pm 23:53 Mostly Clear with Fog 51 10.6 50 10 96 96 Calm 30.15 1021 1 1 0.00 0.00

Powered by AerisWeather